owner,sensor,date,latitude,longitude,vertical_datum,sea_water_practical_salinity,qcFlag 
SCCF RECON,ioos:station:SCCF:11:1,2014-05-01T00:00:00Z,26.4679,-82.0631,1.55,34.46,1111122 
SCCF RECON,ioos:station:SCCF:11:1,2014-05-01T01:00:00Z,26.4679,-82.0631,1.44,34.39,1111122 
SCCF RECON,ioos:station:SCCF:11:1,2014-05-01T02:00:00Z,26.4679,-82.0631,1.36,34.34,1111122 
SCCF RECON,ioos:station:SCCF:11:1,2014-05-01T03:00:00Z,26.4679,-82.0631,1.39,34.49,1111122 
SCCF RECON,ioos:station:SCCF:11:1,2014-05-01T04:00:00Z,26.4679,-82.0631,1.56,34.46,1111122 
SCCF RECON,ioos:station:SCCF:11:1,2014-05-01T05:00:00Z,26.4679,-82.0631,1.75,34.46,1111122 
SCCF RECON,ioos:station:SCCF:11:1,2014-05-01T06:00:00Z,26.4679,-82.0631,1.88,34.5,1111122 
SCCF RECON,ioos:station:SCCF:11:1,2014-05-01T07:00:00Z,26.4679,-82.0631,1.96,34.51,1111122 
SCCF RECON,ioos:station:SCCF:11:1,2014-05-01T08:00:00Z,26.4679,-82.0631,2.01,34.54,1111122 
SCCF RECON,ioos:station:SCCF:11:1,2014-05-01T09:00:00Z,26.4679,-82.0631,1.98,34.53,1111122 
SCCF RECON,ioos:station:SCCF:11:1,2014-05-01T10:00:00Z,26.4679,-82.0631,1.88,34.5,1111122 
SCCF RECON,ioos:station:SCCF:11:1,2014-05-01T11:00:00Z,26.4679,-82.0631,1.82,34.48,1111122 
SCCF RECON,ioos:station:SCCF:11:1,2014-05-01T12:00:00Z,26.4679,-82.0631,1.81,34.54,1111122 
SCCF RECON,ioos:station:SCCF:11:1,2014-05-01T13:00:00Z,26.4679,-82.0631,1.81,34.53,1111122 
SCCF RECON,ioos:station:SCCF:11:1,2014-05-01T14:00:00Z,26.4679,-82.0631,1.84,34.6,1111122 
SCCF RECON,ioos:station:SCCF:11:1,2014-05-01T15:00:00Z,26.4679,-82.0631,1.94,34.59,1111122 
SCCF RECON,ioos:station:SCCF:11:1,2014-05-01T16:00:00Z,26.4679,-82.0631,2.09,34.58,1111122 
SCCF RECON,ioos:station:SCCF:11:1,2014-05-01T17:00:00Z,26.4679,-82.0631,2.195,34.6,1111122 
SCCF RECON,ioos:station:SCCF:11:1,2014-05-01T18:00:00Z,26.4679,-82.0631,2.24,34.6,1111122 
SCCF RECON,ioos:station:SCCF:11:1,2014-05-01T19:00:00Z,26.4679,-82.0631,2.25,34.61,1111122 
SCCF RECON,ioos:station:SCCF:11:1,2014-05-01T20:00:00Z,26.4679,-82.0631,2.2,34.6,1111122 
SCCF RECON,ioos:station:SCCF:11:1,2014-05-01T21:00:00Z,26.4679,-82.0631,2.12,34.51,1111122 
SCCF RECON,ioos:station:SCCF:11:1,2014-05-01T22:00:00Z,26.4679,-82.0631,1.97,34.56,1111122 
SCCF RECON,ioos:station:SCCF:11:1,2014-05-01T23:00:00Z,26.4679,-82.0631,1.82,34.58,1111122 
SCCF RECON,ioos:station:SCCF:11:1,2014-05-02T00:00:00Z,26.4679,-82.0631,1.68,34.56,1111122 
SCCF RECON,ioos:station:SCCF:11:1,2014-05-02T01:00:00Z,26.4679,-82.0631,1.56,34.55,1111122 
SCCF RECON,ioos:station:SCCF:11:1,2014-05-02T02:00:00Z,26.4679,-82.0631,1.46,34.55,1111122 
SCCF RECON,ioos:station:SCCF:11:1,2014-05-02T03:00:00Z,26.4679,-82.0631,1.42,34.53,1111122 
SCCF RECON,ioos:station:SCCF:11:1,2014-05-02T04:00:00Z,26.4679,-82.0631,1.498,34.57,1111122 
SCCF RECON,ioos:station:SCCF:11:1,2014-05-02T05:00:00Z,26.4679,-82.0631,1.653,34.55,1111122 
SCCF RECON,ioos:station:SCCF:11:1,2014-05-02T06:00:00Z,26.4679,-82.0631,1.804,34.56,1111122 
SCCF RECON,ioos:station:SCCF:11:1,2014-05-02T07:00:00Z,26.4679,-82.0631,1.92,34.57,1111122 
SCCF RECON,ioos:station:SCCF:11:1,2014-05-02T08:00:00Z,26.4679,-82.0631,1.98,34.58,1111122 
SCCF RECON,ioos:station:SCCF:11:1,2014-05-02T09:00:00Z,26.4679,-82.0631,2.0,34.57,1111122 
SCCF RECON,ioos:station:SCCF:11:1,2014-05-02T10:00:00Z,26.4679,-82.0631,1.98,34.58,1111122 
SCCF RECON,ioos:station:SCCF:11:1,2014-05-02T11:00:00Z,26.4679,-82.0631,1.94,34.58,1111122 
SCCF RECON,ioos:station:SCCF:11:1,2014-05-02T12:00:00Z,26.4679,-82.0631,1.88,34.57,1111122 
SCCF RECON,ioos:station:SCCF:11:1,2014-05-02T13:00:00Z,26.4679,-82.0631,1.85,34.59,1111122 
SCCF RECON,ioos:station:SCCF:11:1,2014-05-02T14:00:00Z,26.4679,-82.0631,1.859,34.61,1111122 
SCCF RECON,ioos:station:SCCF:11:1,2014-05-02T15:00:00Z,26.4679,-82.0631,1.92,34.62,1111122 
SCCF RECON,ioos:station:SCCF:11:1,2014-05-02T16:00:00Z,26.4679,-82.0631,2.031,34.62,1111122 
SCCF RECON,ioos:station:SCCF:11:1,2014-05-02T17:00:00Z,26.4679,-82.0631,2.15,34.62,1111122 
SCCF RECON,ioos:station:SCCF:11:1,2014-05-02T18:00:00Z,26.4679,-82.0631,2.22,34.62,1111122 
SCCF RECON,ioos:station:SCCF:11:1,2014-05-02T19:00:00Z,26.4679,-82.0631,2.23,34.62,1111122 
SCCF RECON,ioos:station:SCCF:11:1,2014-05-02T20:00:00Z,26.4679,-82.0631,2.24,34.62,1111122 
SCCF RECON,ioos:station:SCCF:11:1,2014-05-02T21:00:00Z,26.4679,-82.0631,2.24,34.63,1111122 
SCCF RECON,ioos:station:SCCF:11:1,2014-05-02T22:00:00Z,26.4679,-82.0631,2.18,34.62,1111122 
SCCF RECON,ioos:station:SCCF:11:1,2014-05-02T23:00:00Z,26.4679,-82.0631,2.07,34.63,1111122 
SCCF RECON,ioos:station:SCCF:11:1,2014-05-03T00:00:00Z,26.4679,-82.0631,1.93,34.64,1111122 
SCCF RECON,ioos:station:SCCF:11:1,2014-05-03T01:00:00Z,26.4679,-82.0631,1.76,34.64,1111122 
SCCF RECON,ioos:station:SCCF:11:1,2014-05-03T02:00:00Z,26.4679,-82.0631,1.63,34.64,1111122 
SCCF RECON,ioos:station:SCCF:11:1,2014-05-03T03:00:00Z,26.4679,-82.0631,1.54,34.65,1111122 
SCCF RECON,ioos:station:SCCF:11:1,2014-05-03T04:00:00Z,26.4679,-82.0631,1.52,34.63,1111122 
SCCF RECON,ioos:station:SCCF:11:1,2014-05-03T05:00:00Z,26.4679,-82.0631,1.598,34.64,1111122 
SCCF RECON,ioos:station:SCCF:11:1,2014-05-03T06:00:00Z,26.4679,-82.0631,1.75,34.63,1111122 
SCCF RECON,ioos:station:SCCF:11:1,2014-05-03T07:00:00Z,26.4679,-82.0631,1.869,34.63,1111122 
SCCF RECON,ioos:station:SCCF:11:1,2014-05-03T08:00:00Z,26.4679,-82.0631,1.96,34.64,1111122 
SCCF RECON,ioos:station:SCCF:11:1,2014-05-03T09:00:00Z,26.4679,-82.0631,2.02,34.64,1111122 
SCCF RECON,ioos:station:SCCF:11:1,2014-05-03T10:00:00Z,26.4679,-82.0631,2.03,34.63,1111122 
SCCF RECON,ioos:station:SCCF:11:1,2014-05-03T11:00:00Z,26.4679,-82.0631,2.009,34.63,1111122 
SCCF RECON,ioos:station:SCCF:11:1,2014-05-03T12:00:00Z,26.4679,-82.0631,1.97,34.62,1111122 
SCCF RECON,ioos:station:SCCF:11:1,2014-05-03T13:00:00Z,26.4679,-82.0631,1.95,34.63,1111122 
SCCF RECON,ioos:station:SCCF:11:1,2014-05-03T14:00:00Z,26.4679,-82.0631,1.94,34.63,1111122 
SCCF RECON,ioos:station:SCCF:11:1,2014-05-03T15:00:00Z,26.4679,-82.0631,1.98,34.65,1111122 
SCCF RECON,ioos:station:SCCF:11:1,2014-05-03T16:00:00Z,26.4679,-82.0631,2.04,34.64,1111122 
SCCF RECON,ioos:station:SCCF:11:1,2014-05-03T17:00:00Z,26.4679,-82.0631,2.152,34.57,1111122 
SCCF RECON,ioos:station:SCCF:11:1,2014-05-03T18:00:00Z,26.4679,-82.0631,2.29,34.62,1111122 
SCCF RECON,ioos:station:SCCF:11:1,2014-05-03T19:00:00Z,26.4679,-82.0631,2.27,34.56,1111122 
SCCF RECON,ioos:station:SCCF:11:1,2014-05-03T20:00:00Z,26.4679,-82.0631,2.24,34.58,1111122 
SCCF RECON,ioos:station:SCCF:11:1,2014-05-03T21:00:00Z,26.4679,-82.0631,2.23,34.58,1111122 
SCCF RECON,ioos:station:SCCF:11:1,2014-05-03T22:00:00Z,26.4679,-82.0631,2.19,34.56,1111122 
SCCF RECON,ioos:station:SCCF:11:1,2014-05-03T23:00:00Z,26.4679,-82.0631,2.08,34.55,1111122 
SCCF RECON,ioos:station:SCCF:11:1,2014-05-04T00:00:00Z,26.4679,-82.0631,1.946,34.57,1111122 
SCCF RECON,ioos:station:SCCF:11:1,2014-05-04T01:00:00Z,26.4679,-82.0631,1.81,34.56,1111122 
SCCF RECON,ioos:station:SCCF:11:1,2014-05-04T02:00:00Z,26.4679,-82.0631,1.69,34.56,1111122 
SCCF RECON,ioos:station:SCCF:11:1,2014-05-04T03:00:00Z,26.4679,-82.0631,1.585,34.57,1111122 
SCCF RECON,ioos:station:SCCF:11:1,2014-05-04T04:00:00Z,26.4679,-82.0631,1.52,34.58,1111122 
SCCF RECON,ioos:station:SCCF:11:1,2014-05-04T05:00:00Z,26.4679,-82.0631,1.51,34.5,1111122 
SCCF RECON,ioos:station:SCCF:11:1,2014-05-04T06:00:00Z,26.4679,-82.0631,1.59,34.59,1111122 
SCCF RECON,ioos:station:SCCF:11:1,2014-05-04T07:00:00Z,26.4679,-82.0631,1.7,34.59,1111122 
SCCF RECON,ioos:station:SCCF:11:1,2014-05-04T08:00:00Z,26.4679,-82.0631,1.798,34.54,1111122 
SCCF RECON,ioos:station:SCCF:11:1,2014-05-04T09:00:00Z,26.4679,-82.0631,1.851,34.54,1111122 
SCCF RECON,ioos:station:SCCF:11:1,2014-05-04T10:00:00Z,26.4679,-82.0631,1.87,34.54,1111122 
SCCF RECON,ioos:station:SCCF:11:1,2014-05-04T11:00:00Z,26.4679,-82.0631,1.84,34.56,1111122 
SCCF RECON,ioos:station:SCCF:11:1,2014-05-04T12:00:00Z,26.4679,-82.0631,1.78,34.55,1111122 
SCCF RECON,ioos:station:SCCF:11:1,2014-05-04T13:00:00Z,26.4679,-82.0631,1.74,34.56,1111122 
SCCF RECON,ioos:station:SCCF:11:1,2014-05-04T14:00:00Z,26.4679,-82.0631,1.712,34.57,1111122 
SCCF RECON,ioos:station:SCCF:11:1,2014-05-04T15:00:00Z,26.4679,-82.0631,1.71,34.53,1111122 
SCCF RECON,ioos:station:SCCF:11:1,2014-05-04T16:00:00Z,26.4679,-82.0631,1.739,34.47,1111122 
SCCF RECON,ioos:station:SCCF:11:1,2014-05-04T17:00:00Z,26.4679,-82.0631,1.76,34.41,1111122 
SCCF RECON,ioos:station:SCCF:11:1,2014-05-04T18:00:00Z,26.4679,-82.0631,1.81,34.46,1111122 
SCCF RECON,ioos:station:SCCF:11:1,2014-05-04T19:00:00Z,26.4679,-82.0631,1.89,34.43,1111122 
SCCF RECON,ioos:station:SCCF:11:1,2014-05-04T20:00:00Z,26.4679,-82.0631,1.95,34.42,1111122 
SCCF RECON,ioos:station:SCCF:11:1,2014-05-04T21:00:00Z,26.4679,-82.0631,1.99,34.46,1111122 
SCCF RECON,ioos:station:SCCF:11:1,2014-05-04T22:00:00Z,26.4679,-82.0631,1.98,34.37,1111122 
SCCF RECON,ioos:station:SCCF:11:1,2014-05-04T23:00:00Z,26.4679,-82.0631,1.92,34.39,1111122 
SCCF RECON,ioos:station:SCCF:11:1,2014-05-05T00:00:00Z,26.4679,-82.0631,1.83,34.45,1111122 
SCCF RECON,ioos:station:SCCF:11:1,2014-05-05T01:00:00Z,26.4679,-82.0631,1.74,34.53,1111122 
SCCF RECON,ioos:station:SCCF:11:1,2014-05-05T02:00:00Z,26.4679,-82.0631,1.64,34.6,1111122 
SCCF RECON,ioos:station:SCCF:11:1,2014-05-05T03:00:00Z,26.4679,-82.0631,1.56,34.63,1111122 
SCCF RECON,ioos:station:SCCF:11:1,2014-05-05T04:00:00Z,26.4679,-82.0631,1.49,34.66,1111122 
SCCF RECON,ioos:station:SCCF:11:1,2014-05-05T05:00:00Z,26.4679,-82.0631,1.46,34.66,1111122 
SCCF RECON,ioos:station:SCCF:11:1,2014-05-05T06:00:00Z,26.4679,-82.0631,1.49,34.52,1111122 
SCCF RECON,ioos:station:SCCF:11:1,2014-05-05T07:00:00Z,26.4679,-82.0631,1.59,34.56,1111122 
SCCF RECON,ioos:station:SCCF:11:1,2014-05-05T08:00:00Z,26.4679,-82.0631,1.7,34.55,1111122 
SCCF RECON,ioos:station:SCCF:11:1,2014-05-05T09:00:00Z,26.4679,-82.0631,1.79,34.41,1111122 
SCCF RECON,ioos:station:SCCF:11:1,2014-05-05T10:00:00Z,26.4679,-82.0631,1.86,33.18,1111122 
SCCF RECON,ioos:station:SCCF:11:1,2014-05-05T11:00:00Z,26.4679,-82.0631,1.91,32.78,1111122 
SCCF RECON,ioos:station:SCCF:11:1,2014-05-05T12:00:00Z,26.4679,-82.0631,1.93,33.17,1111122 
SCCF RECON,ioos:station:SCCF:11:1,2014-05-05T13:00:00Z,26.4679,-82.0631,1.91,33.51,1111122 
SCCF RECON,ioos:station:SCCF:11:1,2014-05-05T14:00:00Z,26.4679,-82.0631,1.89,33.93,1111122 
SCCF RECON,ioos:station:SCCF:11:1,2014-05-05T15:00:00Z,26.4679,-82.0631,1.866,34.11,1111122 
SCCF RECON,ioos:station:SCCF:11:1,2014-05-05T16:00:00Z,26.4679,-82.0631,1.86,34.3,1111122 
SCCF RECON,ioos:station:SCCF:11:1,2014-05-05T17:00:00Z,26.4679,-82.0631,1.89,34.17,1111122 
SCCF RECON,ioos:station:SCCF:11:1,2014-05-05T18:00:00Z,26.4679,-82.0631,1.94,33.63,1111122 
SCCF RECON,ioos:station:SCCF:11:1,2014-05-05T19:00:00Z,26.4679,-82.0631,1.97,33.7,1111122 
SCCF RECON,ioos:station:SCCF:11:1,2014-05-05T20:00:00Z,26.4679,-82.0631,2.01,33.77,1111122 
SCCF RECON,ioos:station:SCCF:11:1,2014-05-05T21:00:00Z,26.4679,-82.0631,2.04,33.64,1111122 
SCCF RECON,ioos:station:SCCF:11:1,2014-05-05T22:00:00Z,26.4679,-82.0631,2.04,33.7,1111122 
SCCF RECON,ioos:station:SCCF:11:1,2014-05-05T23:00:00Z,26.4679,-82.0631,2.01,33.55,1111122 
SCCF RECON,ioos:station:SCCF:11:1,2014-05-06T00:00:00Z,26.4679,-82.0631,1.95,33.65,1111122 
SCCF RECON,ioos:station:SCCF:11:1,2014-05-06T01:00:00Z,26.4679,-82.0631,1.88,33.88,1111122 
SCCF RECON,ioos:station:SCCF:11:1,2014-05-06T02:00:00Z,26.4679,-82.0631,1.801,34.15,1111122 
SCCF RECON,ioos:station:SCCF:11:1,2014-05-06T03:00:00Z,26.4679,-82.0631,1.722,34.37,1111122 
SCCF RECON,ioos:station:SCCF:11:1,2014-05-06T04:00:00Z,26.4679,-82.0631,1.64,34.48,1111122 
SCCF RECON,ioos:station:SCCF:11:1,2014-05-06T05:00:00Z,26.4679,-82.0631,1.57,34.55,1111122 
SCCF RECON,ioos:station:SCCF:11:1,2014-05-06T06:00:00Z,26.4679,-82.0631,1.545,34.38,1111122 
SCCF RECON,ioos:station:SCCF:11:1,2014-05-06T07:00:00Z,26.4679,-82.0631,1.6,34.24,1111122 
SCCF RECON,ioos:station:SCCF:11:1,2014-05-06T08:00:00Z,26.4679,-82.0631,1.681,34.19,1111122 
SCCF RECON,ioos:station:SCCF:11:1,2014-05-06T09:00:00Z,26.4679,-82.0631,1.775,34.15,1111122 
SCCF RECON,ioos:station:SCCF:11:1,2014-05-06T10:00:00Z,26.4679,-82.0631,1.86,34.01,1111122 
SCCF RECON,ioos:station:SCCF:11:1,2014-05-06T11:00:00Z,26.4679,-82.0631,1.94,33.97,1111122 
SCCF RECON,ioos:station:SCCF:11:1,2014-05-06T12:00:00Z,26.4679,-82.0631,1.99,33.91,1111122 
SCCF RECON,ioos:station:SCCF:11:1,2014-05-06T13:00:00Z,26.4679,-82.0631,2.001,33.88,1111122 
SCCF RECON,ioos:station:SCCF:11:1,2014-05-06T14:00:00Z,26.4679,-82.0631,2.0,33.86,1111122 
SCCF RECON,ioos:station:SCCF:11:1,2014-05-06T15:00:00Z,26.4679,-82.0631,1.97,34.07,1111122 
SCCF RECON,ioos:station:SCCF:11:1,2014-05-06T16:00:00Z,26.4679,-82.0631,1.93,34.08,1111122 
SCCF RECON,ioos:station:SCCF:11:1,2014-05-06T17:00:00Z,26.4679,-82.0631,1.92,34.16,1111122 
SCCF RECON,ioos:station:SCCF:11:1,2014-05-06T18:00:00Z,26.4679,-82.0631,1.93,34.11,1111122 
SCCF RECON,ioos:station:SCCF:11:1,2014-05-06T19:00:00Z,26.4679,-82.0631,1.95,34.03,1111122 
SCCF RECON,ioos:station:SCCF:11:1,2014-05-06T20:00:00Z,26.4679,-82.0631,1.96,33.91,1111122 
SCCF RECON,ioos:station:SCCF:11:1,2014-05-06T21:00:00Z,26.4679,-82.0631,1.98,33.96,1111122 
SCCF RECON,ioos:station:SCCF:11:1,2014-05-06T22:00:00Z,26.4679,-82.0631,2.0,33.97,1111122 
SCCF RECON,ioos:station:SCCF:11:1,2014-05-06T23:00:00Z,26.4679,-82.0631,2.0,34.12,1111122 
SCCF RECON,ioos:station:SCCF:11:1,2014-05-07T00:00:00Z,26.4679,-82.0631,2.0,34.13,1111122 
SCCF RECON,ioos:station:SCCF:11:1,2014-05-07T01:00:00Z,26.4679,-82.0631,1.96,34.06,1111122 
SCCF RECON,ioos:station:SCCF:11:1,2014-05-07T02:00:00Z,26.4679,-82.0631,1.891,34.22,1111122 
SCCF RECON,ioos:station:SCCF:11:1,2014-05-07T03:00:00Z,26.4679,-82.0631,1.809,34.24,1111122 
SCCF RECON,ioos:station:SCCF:11:1,2014-05-07T04:00:00Z,26.4679,-82.0631,1.73,34.41,1111122 
SCCF RECON,ioos:station:SCCF:11:1,2014-05-07T05:00:00Z,26.4679,-82.0631,1.67,34.48,1111122 
SCCF RECON,ioos:station:SCCF:11:1,2014-05-07T06:00:00Z,26.4679,-82.0631,1.64,34.5,1111122 
SCCF RECON,ioos:station:SCCF:11:1,2014-05-07T07:00:00Z,26.4679,-82.0631,1.61,34.35,1111122 
SCCF RECON,ioos:station:SCCF:11:1,2014-05-07T08:00:00Z,26.4679,-82.0631,1.661,34.26,1111122 
SCCF RECON,ioos:station:SCCF:11:1,2014-05-07T09:00:00Z,26.4679,-82.0631,1.79,34.2,1111122 
SCCF RECON,ioos:station:SCCF:11:1,2014-05-07T10:00:00Z,26.4679,-82.0631,1.87,33.62,1111122 
SCCF RECON,ioos:station:SCCF:11:1,2014-05-07T11:00:00Z,26.4679,-82.0631,1.98,33.54,1111122 
SCCF RECON,ioos:station:SCCF:11:1,2014-05-07T12:00:00Z,26.4679,-82.0631,2.031,33.5,1111122 
SCCF RECON,ioos:station:SCCF:11:1,2014-05-07T13:00:00Z,26.4679,-82.0631,2.071,33.55,1111122 
SCCF RECON,ioos:station:SCCF:11:1,2014-05-07T14:00:00Z,26.4679,-82.0631,2.09,33.58,1111122 
SCCF RECON,ioos:station:SCCF:11:1,2014-05-07T15:00:00Z,26.4679,-82.0631,2.06,33.58,1111122 
SCCF RECON,ioos:station:SCCF:11:1,2014-05-07T16:00:00Z,26.4679,-82.0631,1.994,33.56,1111122 
SCCF RECON,ioos:station:SCCF:11:1,2014-05-07T17:00:00Z,26.4679,-82.0631,1.93,33.97,1111122 
SCCF RECON,ioos:station:SCCF:11:1,2014-05-07T18:00:00Z,26.4679,-82.0631,1.89,34.04,1111122 
SCCF RECON,ioos:station:SCCF:11:1,2014-05-07T19:00:00Z,26.4679,-82.0631,1.88,33.79,1111122 
SCCF RECON,ioos:station:SCCF:11:1,2014-05-07T20:00:00Z,26.4679,-82.0631,1.88,33.79,1111122 
SCCF RECON,ioos:station:SCCF:11:1,2014-05-07T21:00:00Z,26.4679,-82.0631,1.93,33.74,1111122 
SCCF RECON,ioos:station:SCCF:11:1,2014-05-07T22:00:00Z,26.4679,-82.0631,1.97,33.83,1111122 
SCCF RECON,ioos:station:SCCF:11:1,2014-05-07T23:00:00Z,26.4679,-82.0631,2.0,33.81,1111122 
SCCF RECON,ioos:station:SCCF:11:1,2014-05-08T00:00:00Z,26.4679,-82.0631,2.0,33.88,1111122 
SCCF RECON,ioos:station:SCCF:11:1,2014-05-08T01:00:00Z,26.4679,-82.0631,2.01,33.83,1111122 
SCCF RECON,ioos:station:SCCF:11:1,2014-05-08T02:00:00Z,26.4679,-82.0631,1.997,33.84,1111122 
SCCF RECON,ioos:station:SCCF:11:1,2014-05-08T03:00:00Z,26.4679,-82.0631,1.95,33.85,1111122 
SCCF RECON,ioos:station:SCCF:11:1,2014-05-08T04:00:00Z,26.4679,-82.0631,1.89,34.04,1111122 
SCCF RECON,ioos:station:SCCF:11:1,2014-05-08T05:00:00Z,26.4679,-82.0631,1.78,34.36,1111122 
SCCF RECON,ioos:station:SCCF:11:1,2014-05-08T06:00:00Z,26.4679,-82.0631,1.66,34.56,1111122 
SCCF RECON,ioos:station:SCCF:11:1,2014-05-08T07:00:00Z,26.4679,-82.0631,1.57,34.62,1111122 
SCCF RECON,ioos:station:SCCF:11:1,2014-05-08T08:00:00Z,26.4679,-82.0631,1.547,34.52,1111122 
SCCF RECON,ioos:station:SCCF:11:1,2014-05-08T09:00:00Z,26.4679,-82.0631,1.62,33.76,1111122 
SCCF RECON,ioos:station:SCCF:11:1,2014-05-08T10:00:00Z,26.4679,-82.0631,1.76,33.84,1111122 
SCCF RECON,ioos:station:SCCF:11:1,2014-05-08T11:00:00Z,26.4679,-82.0631,1.879,33.65,1111122 
SCCF RECON,ioos:station:SCCF:11:1,2014-05-08T12:00:00Z,26.4679,-82.0631,1.96,33.62,1111122 
SCCF RECON,ioos:station:SCCF:11:1,2014-05-08T13:00:00Z,26.4679,-82.0631,2.03,33.61,1111122 
SCCF RECON,ioos:station:SCCF:11:1,2014-05-08T14:00:00Z,26.4679,-82.0631,2.06,33.62,1111122 
SCCF RECON,ioos:station:SCCF:11:1,2014-05-08T15:00:00Z,26.4679,-82.0631,2.05,33.68,1111122 
SCCF RECON,ioos:station:SCCF:11:1,2014-05-08T16:00:00Z,26.4679,-82.0631,2.02,33.67,1111122 
SCCF RECON,ioos:station:SCCF:11:1,2014-05-08T17:00:00Z,26.4679,-82.0631,1.95,33.73,1111122 
SCCF RECON,ioos:station:SCCF:11:1,2014-05-08T18:00:00Z,26.4679,-82.0631,1.88,33.81,1111122 
SCCF RECON,ioos:station:SCCF:11:1,2014-05-08T19:00:00Z,26.4679,-82.0631,1.82,33.91,1111122 
SCCF RECON,ioos:station:SCCF:11:1,2014-05-08T20:00:00Z,26.4679,-82.0631,1.8,34.07,1111122 
SCCF RECON,ioos:station:SCCF:11:1,2014-05-08T21:00:00Z,26.4679,-82.0631,1.822,33.93,1111122 
SCCF RECON,ioos:station:SCCF:11:1,2014-05-08T22:00:00Z,26.4679,-82.0631,1.88,33.95,1111122 
SCCF RECON,ioos:station:SCCF:11:1,2014-05-08T23:00:00Z,26.4679,-82.0631,1.98,33.98,1111122 
SCCF RECON,ioos:station:SCCF:11:1,2014-05-09T00:00:00Z,26.4679,-82.0631,2.02,34.02,1111122 
SCCF RECON,ioos:station:SCCF:11:1,2014-05-09T01:00:00Z,26.4679,-82.0631,2.06,33.97,1111122 
SCCF RECON,ioos:station:SCCF:11:1,2014-05-09T02:00:00Z,26.4679,-82.0631,2.05,33.99,1111122 
SCCF RECON,ioos:station:SCCF:11:1,2014-05-09T03:00:00Z,26.4679,-82.0631,2.04,33.99,1111122 
SCCF RECON,ioos:station:SCCF:11:1,2014-05-09T04:00:00Z,26.4679,-82.0631,1.97,33.95,1111122 
SCCF RECON,ioos:station:SCCF:11:1,2014-05-09T05:00:00Z,26.4679,-82.0631,1.87,34.04,1111122 
SCCF RECON,ioos:station:SCCF:11:1,2014-05-09T06:00:00Z,26.4679,-82.0631,1.75,34.22,1111122 
SCCF RECON,ioos:station:SCCF:11:1,2014-05-09T07:00:00Z,26.4679,-82.0631,1.65,34.35,1111122 
SCCF RECON,ioos:station:SCCF:11:1,2014-05-09T08:00:00Z,26.4679,-82.0631,1.59,34.39,1111122 
SCCF RECON,ioos:station:SCCF:11:1,2014-05-09T09:00:00Z,26.4679,-82.0631,1.6,34.33,1111122 
SCCF RECON,ioos:station:SCCF:11:1,2014-05-09T10:00:00Z,26.4679,-82.0631,1.66,34.17,1111122 
SCCF RECON,ioos:station:SCCF:11:1,2014-05-09T11:00:00Z,26.4679,-82.0631,1.84,34.06,1111122 
SCCF RECON,ioos:station:SCCF:11:1,2014-05-09T12:00:00Z,26.4679,-82.0631,1.96,34.17,1111122 
SCCF RECON,ioos:station:SCCF:11:1,2014-05-09T13:00:00Z,26.4679,-82.0631,2.03,34.23,1111122 
SCCF RECON,ioos:station:SCCF:11:1,2014-05-09T14:00:00Z,26.4679,-82.0631,2.075,34.38,1111122 
SCCF RECON,ioos:station:SCCF:11:1,2014-05-09T15:00:00Z,26.4679,-82.0631,2.09,34.34,1111122 
SCCF RECON,ioos:station:SCCF:11:1,2014-05-09T16:00:00Z,26.4679,-82.0631,2.08,34.41,1111122 
SCCF RECON,ioos:station:SCCF:11:1,2014-05-09T17:00:00Z,26.4679,-82.0631,2.01,34.16,1111122 
SCCF RECON,ioos:station:SCCF:11:1,2014-05-09T18:00:00Z,26.4679,-82.0631,1.91,34.17,1111122 
SCCF RECON,ioos:station:SCCF:11:1,2014-05-09T19:00:00Z,26.4679,-82.0631,1.83,34.28,1111122 
SCCF RECON,ioos:station:SCCF:11:1,2014-05-09T20:00:00Z,26.4679,-82.0631,1.76,34.29,1111122 
SCCF RECON,ioos:station:SCCF:11:1,2014-05-09T21:00:00Z,26.4679,-82.0631,1.72,34.28,1111122 
SCCF RECON,ioos:station:SCCF:11:1,2014-05-09T22:00:00Z,26.4679,-82.0631,1.74,34.33,1111122 
SCCF RECON,ioos:station:SCCF:11:1,2014-05-09T23:00:00Z,26.4679,-82.0631,1.83,34.59,1111122 
SCCF RECON,ioos:station:SCCF:11:1,2014-05-10T00:00:00Z,26.4679,-82.0631,1.92,34.62,1111122 
SCCF RECON,ioos:station:SCCF:11:1,2014-05-10T01:00:00Z,26.4679,-82.0631,1.99,34.61,1111122 
SCCF RECON,ioos:station:SCCF:11:1,2014-05-10T02:00:00Z,26.4679,-82.0631,2.04,34.58,1111122 
SCCF RECON,ioos:station:SCCF:11:1,2014-05-10T03:00:00Z,26.4679,-82.0631,2.07,34.57,1111122 
SCCF RECON,ioos:station:SCCF:11:1,2014-05-10T04:00:00Z,26.4679,-82.0631,2.05,34.58,1111122 
SCCF RECON,ioos:station:SCCF:11:1,2014-05-10T05:00:00Z,26.4679,-82.0631,1.96,34.55,1111122 
SCCF RECON,ioos:station:SCCF:11:1,2014-05-10T06:00:00Z,26.4679,-82.0631,1.84,34.52,1111122 
SCCF RECON,ioos:station:SCCF:11:1,2014-05-10T07:00:00Z,26.4679,-82.0631,1.75,34.5,1111122 
SCCF RECON,ioos:station:SCCF:11:1,2014-05-10T08:00:00Z,26.4679,-82.0631,1.687,34.54,1111122 
SCCF RECON,ioos:station:SCCF:11:1,2014-05-10T09:00:00Z,26.4679,-82.0631,1.65,34.55,1111122 
SCCF RECON,ioos:station:SCCF:11:1,2014-05-10T10:00:00Z,26.4679,-82.0631,1.68,34.53,1111122 
SCCF RECON,ioos:station:SCCF:11:1,2014-05-10T11:00:00Z,26.4679,-82.0631,1.795,34.51,1111122 
SCCF RECON,ioos:station:SCCF:11:1,2014-05-10T12:00:00Z,26.4679,-82.0631,1.96,34.52,1111122 
SCCF RECON,ioos:station:SCCF:11:1,2014-05-10T13:00:00Z,26.4679,-82.0631,2.037,34.52,1111122 
SCCF RECON,ioos:station:SCCF:11:1,2014-05-10T14:00:00Z,26.4679,-82.0631,2.11,34.44,1111122 
SCCF RECON,ioos:station:SCCF:11:1,2014-05-10T15:00:00Z,26.4679,-82.0631,2.17,34.48,1111122 
SCCF RECON,ioos:station:SCCF:11:1,2014-05-10T16:00:00Z,26.4679,-82.0631,2.17,34.54,1111122 
SCCF RECON,ioos:station:SCCF:11:1,2014-05-10T17:00:00Z,26.4679,-82.0631,2.07,34.47,1111122 
SCCF RECON,ioos:station:SCCF:11:1,2014-05-10T18:00:00Z,26.4679,-82.0631,1.93,34.55,1111122 
SCCF RECON,ioos:station:SCCF:11:1,2014-05-10T19:00:00Z,26.4679,-82.0631,1.805,34.62,1111122 
SCCF RECON,ioos:station:SCCF:11:1,2014-05-10T20:00:00Z,26.4679,-82.0631,1.74,34.65,1111122 
SCCF RECON,ioos:station:SCCF:11:1,2014-05-10T21:00:00Z,26.4679,-82.0631,1.72,34.63,1111122 
SCCF RECON,ioos:station:SCCF:11:1,2014-05-10T22:00:00Z,26.4679,-82.0631,1.71,34.58,1111122 
SCCF RECON,ioos:station:SCCF:11:1,2014-05-10T23:00:00Z,26.4679,-82.0631,1.73,34.75,1111122 
SCCF RECON,ioos:station:SCCF:11:1,2014-05-11T00:00:00Z,26.4679,-82.0631,1.82,34.77,1111122 
SCCF RECON,ioos:station:SCCF:11:1,2014-05-11T01:00:00Z,26.4679,-82.0631,1.91,34.78,1111122 
SCCF RECON,ioos:station:SCCF:11:1,2014-05-11T02:00:00Z,26.4679,-82.0631,1.98,34.81,1111122 
SCCF RECON,ioos:station:SCCF:11:1,2014-05-11T03:00:00Z,26.4679,-82.0631,2.05,34.84,1111122 
SCCF RECON,ioos:station:SCCF:11:1,2014-05-11T04:00:00Z,26.4679,-82.0631,2.08,34.85,1111122 
SCCF RECON,ioos:station:SCCF:11:1,2014-05-11T05:00:00Z,26.4679,-82.0631,2.06,34.83,1111122 
SCCF RECON,ioos:station:SCCF:11:1,2014-05-11T06:00:00Z,26.4679,-82.0631,1.99,34.83,1111122 
SCCF RECON,ioos:station:SCCF:11:1,2014-05-11T07:00:00Z,26.4679,-82.0631,1.886,34.79,1111122 
SCCF RECON,ioos:station:SCCF:11:1,2014-05-11T08:00:00Z,26.4679,-82.0631,1.78,34.82,1111122 
SCCF RECON,ioos:station:SCCF:11:1,2014-05-11T09:00:00Z,26.4679,-82.0631,1.7,34.81,1111122 
SCCF RECON,ioos:station:SCCF:11:1,2014-05-11T10:00:00Z,26.4679,-82.0631,1.67,34.79,1111122 
SCCF RECON,ioos:station:SCCF:11:1,2014-05-11T11:00:00Z,26.4679,-82.0631,1.71,34.82,1111122 
SCCF RECON,ioos:station:SCCF:11:1,2014-05-11T12:00:00Z,26.4679,-82.0631,1.87,34.84,1111122 
SCCF RECON,ioos:station:SCCF:11:1,2014-05-11T13:00:00Z,26.4679,-82.0631,2.01,34.84,1111122 
SCCF RECON,ioos:station:SCCF:11:1,2014-05-11T14:00:00Z,26.4679,-82.0631,2.093,34.87,1111122 
SCCF RECON,ioos:station:SCCF:11:1,2014-05-11T15:00:00Z,26.4679,-82.0631,2.17,34.91,1111122 
SCCF RECON,ioos:station:SCCF:11:1,2014-05-11T16:00:00Z,26.4679,-82.0631,2.19,34.92,1111122 
SCCF RECON,ioos:station:SCCF:11:1,2014-05-11T17:00:00Z,26.4679,-82.0631,2.113,34.92,1111122 
SCCF RECON,ioos:station:SCCF:11:1,2014-05-11T18:00:00Z,26.4679,-82.0631,1.98,34.87,1111122 